Terug naar catalogus

STARLINK-31526

ActiefCommunicatieVLEO
NORAD 59016·PAYLOAD·🇺🇸 United States

Gelanceerd Feb 23, 2024 vanaf Vandenberg Space Force Base

Loading…

Volgende Passages (komende 24 uur)

TLE

VersSource: CelesTrak SupGP

Epoch: Sep 14, 2026, 22:21 UTC

1 59016C 24036U   26257.93173611  .00046648  00000+0  15002-2 0  2573
2 59016  53.1578 252.3334 0001255  88.6323 266.3811 15.31675481    16

Volg STARLINK-31526 in realtime met AllMySat

Download on the App Store